Back to catalog

QIANFAN-167

AliveCommunicationsPO
NORAD 69384·PAYLOAD·🇨🇳 China

Launched Jun 4, 2026 from Taiyuan Satellite Launch Center

Loading…

Next Passes (next 24 hours)

TLE

FreshSource: Space-Track

Epoch: Sep 14, 2026, 12:52 UTC

1 69384U 26124C   26257.53645576  .00000127  00000-0  17800-3 0  9997
2 69384  89.0065 352.6384 0002180 107.9923 252.1466 13.51030644 14090

Track QIANFAN-167 in real time with AllMySat

Download on the App Store